Location: Ahstedt
(52.2048°N, 10.1060°E)
Time: 21:54:39
(UTC+00:00)

Cosmos 2082 Rocket - Pass Details

Date: 18 April 2026
Orbit: 831 x 853 km, 71.0° (Epoch: 19 May)

Event Time Altitude Azimuth Distance (km) Brightness Sun altitude
Exits shadow 00:16:36 25° 118° (ESE) 1,671 3.6 -25.8°
Maximum altitude 00:17:30 26° 103° (ESE) 1,631 3.7 -25.8°
Drops below altitude 10° 00:22:07 10° 49° (NE) 2,493 5.4 -25.6°
Sets 00:24:56 0° 38° (NE) 3,433 6.5 -25.5°
